Notices

Please take our survey and provide feedback: https://eccc.sondage-survey.ca/f/LanguageSelection.aspx?s=442ca660-fcf1-47c0-95a9-59707d6fd709

Please note that the IDF dataset is available through this link: Intensity-Duration-Frequency (IDF) Files .

Hourly Data Report for November 15, 2019

EUREKA CLIMATE
NUNAVUT
Current Station Operator: ECCC - MSC

79°59'21.000" N
85°56'02.000" W
10.00 m
2401199
71613
NEK

Download Data

Hourly Data (November 2019)
Hourly Data Report for November 15, 2019
TIME
LST
Temp Definition
°C
Dew Point Definition
°C
Rel Hum Definition
%
Precip. Amount Definition
mm

Wind Dir Definition
10's deg

Wind Spd Definition
km/h
Visibility Definition
km
Stn Press Definition
kPa
Hmdx Definition


Wind Chill Definition


Weather Definition


00:00 -21.7 -23.6 85 0.0 28 42   98.45   -37 LegendNANA
01:00 -21.3 -23.2 85 0.0 28 40   98.40   -36 LegendNANA
02:00 -20.7 -22.5 85 0.0 28 46   98.32   -36 LegendNANA
03:00 -19.7 -21.6 85 0.0 29 43   98.24   -34 LegendNANA
04:00 -19.1 -21.0 85 0.0 29 42   98.21   -33 LegendNANA
05:00 -18.2 -20.8 80 0.0 29 31   98.13   -30 LegendNANA
06:00 -18.1 -20.4 82 0.0 29 35   98.09   -31 LegendNANA
07:00 -18.1 -20.1 85 0.0 28 37   98.00   -31 LegendNANA
08:00 -17.9 -20.1 83 0.0 27 36   97.92   -31 LegendNANA
09:00 -17.1 -19.7 80 0.0 27 31   97.90   -29 LegendNANA
10:00 -16.3 -19.4 77 0.0 28 29   97.88   -28 LegendNANA
11:00 -15.7 -19.2 75 0.0 27 27   97.93   -26 LegendNANA
12:00 -16.7 -19.4 79 0.0 28 35   97.88   -29 LegendNANA
13:00 -17.4 -19.5 84 0.0 29 28   97.97   -29 LegendNANA
14:00 -17.4 -19.7 83 0.0 30 29   97.98   -29 LegendNANA
15:00 -17.7 -19.9 83 0.0 26 7   98.05   -23 LegendNANA
16:00 -17.7 -20.3 80 0.0 31 16   98.15   -27 LegendNANA
17:00 -18.7 -21.4 79 0.0 10 12   98.26   -26 LegendNANA
18:00 -17.1 -19.8 79 0.0 29 12   98.28   -25 LegendNANA
19:00 -18.5 -21.0 81 0.0 9 22   98.43   -29 LegendNANA
20:00 -18.0 -20.7 79 0.0 12 11   98.58   -25 LegendNANA
21:00 -17.8 -20.9 77 0.0 11 11   98.73   -25 LegendNANA
22:00 -17.9 -20.5 80 0.0 10 9   98.85   -24 LegendNANA
23:00 -17.7 -20.6 79 0.0 1 4   98.96   -21 LegendNANA

Notes on Data Quality.

Legend

  • E = Estimated
  • M = Missing
  • NA = Not Available*
  • [empty] = Indicates an unobserved value
Date modified: